STARLINK-1775, 46681

Orbit data source: Space-Track

STARLINK-1775, 46681 is a payload satellite owned by SpaceX/Seattle (US) in LEO that was launched on Sun, 18 Oct 2020 UTC via an FALCON 9 launch vehicle from the Air Force Eastern Test Range (AFETR). Payload-class satellites include a variety of spacecraft equipped with specific instruments for various scientific and technological missions. These include communications satellites like Starlink; space stations such as the ISS; scientific satellites like the Hubble; Earth observation satellites from companies like Planet Labs, Umbra, and HawkEye 360; GPS; miniature CubeSats for education and research; and military/defense satellites.

Loading next visibility...
Identifier
46681, 2020-073M
Orbit
LEO
Country
Flag of USUS
Related business
Manufacturer
SpaceX/Seattle
Mission
Partially operational Commercial Communications
Bus & Motor
STARLINK, Unknown motor
Mass
260 kg wet, ~248 kg dry
Launch date (UTC)
2020-10-18 (5 years ago)
Launch vehicle
FALCON 9
Launch site
Air Force Eastern Test Range (AFETR)
Object type
Payload
Rocket body
Debris
Shape & HBR
Box + 1 Pan, 10.1 m
Radar Cross Section
13.562 m², Large (>1 m²)

Expand to show TLE details & history
Last TLE update: 4 hours ago

TLE from 4 hours ago
0 STARLINK-1775
1 46681U 20073M   26045.50002314  .00214217  00000-0  17574-2 0  9992
2 46681  53.0493 325.6889 0006566  78.6606 265.5050 15.69275770  5971
Epoch: 2026-02-14T12:00Z
TLE epoch observation values (Epoch: 2026-02-14T12:00:01.999Z)
Latitude
-12.80778°
Longitude
-8.63206°
Altitude
364.755 km
Speed
7.691 km/s
True Right ascension
21h 03m 35s
True Declination
-12° 43' 46"
Sunlit
Object was in daylight at epoch
Visualization orbit readout
Latitude
Unknown
Longitude
Unknown
Altitude
Unknown
Speed
Unknown
Apparent Right ascension
Unknown
Apparent Declination
Unknown
Sunlit
N/A
Visualization observer readout
Local Sidereal Time
18:47:27
Azimuth
Unknown
Elevation
Unknown
Doppler factor
Unknown
Orbital elements
Apogee altitude
365.674 km
Perigee altitude
356.823 km
Semi-major axis
6,739.385 km
Eccentricity
0.00066
Inclination
53.0493°
RAAN
325.6889°
Arg. of periapsis
78.6606°
True anomaly
265.43°
Mean anomaly
265.505°
Eccentric anomaly
265.4675°
Mean motion
3.92295 °/min
Orbital period
91.77 mins
BSTAR
0.0017574
Loading maneuver chart data...
Computing Atmospheric mass density...

Documentation

Showing up to 5 results
|